Location: Newark
(51.5033°N, 0.1199°W)
Time: 11:55:54
(UTC+00:00)

PicSat - Pass Details

Date: 19 September 2019
Orbit: 486 x 499 km, 97.5° (Epoch: 19 October)

Event Time Altitude Azimuth Distance (km) Brightness Sun altitude
Exits shadow 20:17:28 14° 40° (NE) 1,461 ? -20.2°
Drops below altitude 10° 20:18:40 10° 22° (NNE) 1,716 ? -20.4°
Sets 20:21:22 0° 0° (N) 2,607 ? -20.7°
